Flag for U.S.A. Weather past 2 weeks in San Jose, California, U.S.A.

Now
53 °F

Clear.


Feels Like: 52 °F
Forecast: 57 / 84 °F
Wind: 5 mph from Southeast

Location: San Jose International Airport

Current Time: Oct 2, 2014 at 6:39:19 AM

Latest Report: Oct 2, 2014 at 5:53 AM


Visibility: 10 mi

Pressure: 29.97 "Hg

Humidity: 66%

Dew point: 42 °F

Location of San JoseLocation

Historic Weather in San Jose — Graph

°F

San Jose temperature yesterday

Maximum temperature yesterday: 84 °F (at 2:53 PM)
Minimum temperature yesterday: 56 °F (at 4:53 AM)
Average temperature yesterday: 69 °F

Past Weeks' High & Low Weather Summary

 TemperatureHumidityPressure
High84 °F (Oct 1, 2:53 PM)100% (Sep 25, 2:53 AM)30.05 "Hg (Sep 25, 2:53 AM)
Low55 °F (Sep 30, 4:53 AM)15% (Oct 1, 3:53 PM)29.73 "Hg (Sep 17, 4:53 PM)
Average66 °F72%29.92 "Hg
* Reported Sep 17 4:53 AM — Oct 2 4:53 AM, San Jose, Weather by CustomWeather, © 2014

Note: Actual official high and low records may vary slightly from our data, if they occured in-between our weather recording intervals... More about our weather records

Advertising

San Jose weather history for previous 24 hours

 ConditionsComfort  
Time TempWeatherWind HumidityBarometerVisibility
4:53 AM
Oct 2
55 °FClear.3 mph62%29.96 "Hg10 mi
3:53 AM55 °FClear.5 mph67%29.96 "Hg10 mi
2:53 AM58 °FClear.No wind58%29.95 "Hg10 mi
1:53 AM57 °FClear.No wind62%29.95 "Hg10 mi
12:53 AM60 °FClear.No wind56%29.94 "Hg10 mi
11:53 PM
Oct 1
61 °FClear.3 mph56%29.94 "Hg10 mi
10:53 PM67 °FClear.5 mph53%29.94 "Hg10 mi
9:53 PM67 °FClear.No wind44%29.93 "Hg10 mi
8:53 PM68 °FClear.9 mph45%29.90 "Hg10 mi
7:53 PM70 °FClear.12 mph42%29.88 "Hg10 mi
6:53 PM72 °FSunny.13 mph41%29.87 "Hg10 mi
5:53 PM79 °FSunny.15 mph25%29.85 "Hg10 mi
4:53 PM83 °FSunny.13 mph17%29.84 "Hg10 mi
3:53 PM84 °FSunny.7 mph15%29.85 "Hg10 mi
2:53 PM84 °FSunny.13 mph19%29.84 "Hg10 mi
1:53 PM82 °FSunny.13 mph21%29.86 "Hg10 mi
12:53 PM79 °FSunny.8 mph23%29.88 "Hg10 mi
11:53 AM79 °FSunny.14 mph21%29.89 "Hg10 mi
10:53 AM75 °FSunny.10 mph31%29.90 "Hg10 mi
9:53 AM71 °FSunny.8 mph38%29.90 "Hg10 mi
8:53 AM65 °FSunny.6 mph61%29.91 "Hg10 mi
7:53 AM59 °FClear.3 mph78%29.90 "Hg10 mi
6:53 AM56 °FPassing clouds.No wind90%29.88 "Hg10 mi
Weather by CustomWeather, © 2014

See weather overviewHow to use our weather pages